timestamp,wind_dir_avg,wind_spd_avg,wind_spd_max_dir,wind_spd_gust,battery_voltage,lat,long
2024-02-28 00:04:01+00:00,232.0,5.99,244.0,9.7,12.25,47.59359,-54.27349
2024-02-28 00:14:00+00:00,228.0,5.03,237.0,6.69,12.17,47.59359,-54.27349
2024-02-28 00:24:00+00:00,225.0,4.97,219.0,5.63,12.17,47.59359,-54.27349
2024-02-28 00:34:00+00:00,240.0,8.39,242.0,9.99,12.17,47.59359,-54.27349
2024-02-28 00:44:00+00:00,233.0,4.91,250.0,9.33,12.17,47.59359,-54.27349
2024-02-28 00:54:00+00:00,233.0,6.93,241.0,10.26,12.17,47.59359,-54.27349
2024-02-28 01:04:00+00:00,235.0,9.95,240.0,11.07,12.17,47.59359,-54.27349
2024-02-28 01:14:00+00:00,238.0,10.65,239.0,11.55,12.17,47.59359,-54.27349
2024-02-28 01:24:00+00:00,241.0,10.57,237.0,11.67,12.17,47.59359,-54.27349
2024-02-28 01:34:00+00:00,240.0,8.8,238.0,11.31,12.17,47.59359,-54.27349
2024-02-28 01:44:00+00:00,244.0,10.35,244.0,11.35,12.17,47.59359,-54.27349
2024-02-28 01:54:00+00:00,246.0,9.98,249.0,10.91,12.17,47.59359,-54.27349
2024-02-28 02:04:00+00:00,243.0,9.72,240.0,11.14,12.17,47.59359,-54.27349
2024-02-28 02:14:00+00:00,231.0,5.75,244.0,9.79,12.09,47.59359,-54.27349
2024-02-28 02:24:00+00:00,242.0,8.68,244.0,10.94,12.09,47.59359,-54.27349
2024-02-28 02:34:00+00:00,247.0,10.18,249.0,11.01,12.09,47.59359,-54.27349
2024-02-28 02:44:00+00:00,241.0,10.22,246.0,11.54,12.09,47.59359,-54.27349
2024-02-28 02:54:00+00:00,236.0,10.76,233.0,11.99,12.09,47.59359,-54.27349
2024-02-28 03:04:00+00:00,239.0,9.17,238.0,11.06,12.09,47.59359,-54.27349
2024-02-28 03:14:00+00:00,243.0,9.04,245.0,10.51,12.17,47.59359,-54.27349
2024-02-28 03:24:00+00:00,240.0,8.62,242.0,10.66,12.17,47.59359,-54.27349
2024-02-28 03:34:00+00:00,235.0,6.84,244.0,10.22,12.17,47.59359,-54.27349
2024-02-28 03:44:00+00:00,233.0,7.21,237.0,10.48,12.17,47.59359,-54.27349
2024-02-28 03:54:00+00:00,238.0,8.71,240.0,10.44,12.17,47.59359,-54.27349
2024-02-28 04:04:00+00:00,237.0,7.7,242.0,10.19,12.17,47.59359,-54.27349
2024-02-28 04:14:00+00:00,233.0,7.41,240.0,10.41,12.09,47.59359,-54.27349
2024-02-28 04:24:00+00:00,230.0,8.85,238.0,11.06,12.09,47.59359,-54.27349
2024-02-28 04:34:00+00:00,221.0,9.58,229.0,11.57,12.09,47.59359,-54.27349
2024-02-28 04:44:00+00:00,217.0,8.11,229.0,11.15,12.09,47.59359,-54.27349
2024-02-28 04:54:00+00:00,229.0,11.95,227.0,12.88,12.09,47.59359,-54.27349
2024-02-28 05:04:00+00:00,233.0,8.87,239.0,11.24,12.09,47.59359,-54.27349
2024-02-28 05:14:00+00:00,232.0,8.83,240.0,11.02,12.09,47.59359,-54.27349
2024-02-28 05:24:00+00:00,224.0,5.98,235.0,7.76,12.09,47.59359,-54.27349
2024-02-28 05:34:00+00:00,235.0,6.63,252.0,9.93,12.09,47.59359,-54.27349
2024-02-28 05:44:00+00:00,240.0,10.86,243.0,11.84,12.09,47.59359,-54.27349
2024-02-28 05:54:00+00:00,237.0,11.28,234.0,12.25,12.09,47.59359,-54.27349
2024-02-28 06:04:00+00:00,239.0,11.08,237.0,12.16,12.09,47.59359,-54.27349
2024-02-28 06:14:01+00:00,240.0,9.11,242.0,10.86,12.09,47.59359,-54.27349
2024-02-28 06:24:01+00:00,223.0,6.6,238.0,10.18,12.09,47.59359,-54.27349
2024-02-28 06:34:01+00:00,220.0,6.63,238.0,10.21,12.09,47.59359,-54.27349
2024-02-28 06:44:01+00:00,235.0,10.57,230.0,11.97,12.09,47.59359,-54.27349
2024-02-28 06:54:01+00:00,224.0,8.96,232.0,11.19,12.09,47.59359,-54.27349
2024-02-28 07:04:01+00:00,236.0,10.89,236.0,11.85,12.09,47.59359,-54.27349
2024-02-28 07:14:00+00:00,221.0,7.62,233.0,11.03,12.01,47.59359,-54.27349
2024-02-28 07:24:00+00:00,215.0,7.68,233.0,10.58,12.01,47.59359,-54.27349
2024-02-28 07:34:00+00:00,216.0,8.7,232.0,12.18,12.01,47.59359,-54.27349
2024-02-28 07:44:00+00:00,223.0,12.46,224.0,13.76,12.01,47.59359,-54.27349
2024-02-28 07:54:00+00:00,230.0,10.61,236.0,12.35,12.01,47.59359,-54.27349
2024-02-28 08:04:00+00:00,231.0,11.36,228.0,12.98,12.01,47.59359,-54.27349
2024-02-28 08:14:00+00:00,229.0,11.96,229.0,12.97,12.01,47.59359,-54.27349
2024-02-28 08:24:00+00:00,226.0,10.51,230.0,12.32,12.01,47.59359,-54.27349
2024-02-28 08:34:00+00:00,215.0,9.77,225.0,12.25,12.01,47.59359,-54.27349
2024-02-28 08:44:00+00:00,218.0,9.8,227.0,12.34,12.01,47.59359,-54.27349
2024-02-28 08:54:00+00:00,209.0,8.16,215.0,10.13,12.01,47.59359,-54.27349
2024-02-28 09:04:00+00:00,216.0,8.55,227.0,11.55,12.01,47.59359,-54.27349
2024-02-28 09:14:00+00:00,229.0,11.73,229.0,12.92,12.01,47.59359,-54.27349
2024-02-28 09:24:00+00:00,229.0,8.82,238.0,11.63,12.01,47.59359,-54.27349
2024-02-28 09:34:00+00:00,226.0,10.69,229.0,12.09,12.01,47.59359,-54.27349
2024-02-28 09:44:00+00:00,226.0,9.21,233.0,11.23,12.01,47.59359,-54.27349
2024-02-28 09:54:00+00:00,218.0,8.15,232.0,11.16,12.01,47.59359,-54.27349
2024-02-28 10:04:00+00:00,213.0,7.74,230.0,10.21,12.01,47.59359,-54.27349
2024-02-28 10:14:00+00:00,210.0,6.75,210.0,7.46,12.01,47.59359,-54.27349
2024-02-28 10:24:00+00:00,207.0,6.57,206.0,7.6,12.01,47.59359,-54.27349
2024-02-28 10:34:00+00:00,206.0,6.23,218.0,7.35,12.01,47.59359,-54.27349
2024-02-28 10:44:00+00:00,208.0,7.86,221.0,9.56,12.01,47.59359,-54.27349
2024-02-28 10:54:00+00:00,206.0,7.98,205.0,8.97,12.01,47.59359,-54.27349
2024-02-28 11:04:00+00:00,217.0,8.28,229.0,11.2,12.01,47.59359,-54.27349
2024-02-28 11:14:00+00:00,211.0,7.69,228.0,10.06,12.01,47.59359,-54.27349
2024-02-28 11:24:00+00:00,213.0,8.76,227.0,11.66,12.01,47.59359,-54.27349
2024-02-28 11:34:00+00:00,210.0,8.11,223.0,11.14,12.01,47.59359,-54.27349
2024-02-28 11:44:00+00:00,215.0,9.61,227.0,12.01,12.01,47.59359,-54.27349
2024-02-28 11:54:00+00:00,211.0,8.88,228.0,11.48,12.01,47.59359,-54.27349
2024-02-28 12:04:00+00:00,212.0,8.64,223.0,10.95,12.01,47.59359,-54.27349
2024-02-28 12:14:00+00:00,204.0,8.49,208.0,9.75,12.09,47.59359,-54.27349
2024-02-28 12:24:00+00:00,217.0,8.62,230.0,11.56,12.09,47.59359,-54.27349
2024-02-28 12:34:00+00:00,222.0,10.24,224.0,12.42,12.09,47.59359,-54.27349
2024-02-28 12:44:00+00:00,224.0,6.33,244.0,9.44,12.09,47.59359,-54.27349
2024-02-28 12:54:00+00:00,218.0,6.84,238.0,9.53,12.09,47.59359,-54.27349
2024-02-28 13:04:00+00:00,222.0,9.62,220.0,13.87,12.09,47.59359,-54.27349
2024-02-28 13:14:00+00:00,227.0,11.37,229.0,12.9,12.49,47.59359,-54.27349
2024-02-28 13:24:00+00:00,231.0,11.18,233.0,12.49,12.49,47.59359,-54.27349
2024-02-28 13:34:00+00:00,227.0,11.89,227.0,13.23,12.49,47.59359,-54.27349
2024-02-28 13:44:00+00:00,231.0,11.73,230.0,12.88,12.49,47.59359,-54.27349
2024-02-28 13:54:00+00:00,228.0,12.04,228.0,13.28,12.49,47.59359,-54.27349
2024-02-28 14:04:00+00:00,222.0,11.69,221.0,13.51,12.49,47.59359,-54.27349
2024-02-28 14:14:00+00:00,223.0,12.03,226.0,13.32,13.13,47.59359,-54.27349
2024-02-28 14:24:00+00:00,224.0,12.08,225.0,13.49,13.13,47.59359,-54.27349
2024-02-28 14:34:00+00:00,223.0,11.78,226.0,13.72,13.13,47.59359,-54.27349
2024-02-28 14:44:00+00:00,226.0,11.73,226.0,13.46,13.13,47.59359,-54.27349
2024-02-28 14:54:00+00:00,224.0,11.61,225.0,13.22,13.13,47.59359,-54.27349
2024-02-28 15:04:00+00:00,220.0,11.08,225.0,13.57,13.13,47.59359,-54.27349
2024-02-28 15:14:00+00:00,221.0,12.69,225.0,13.9,12.97,47.59359,-54.27349
2024-02-28 15:24:00+00:00,220.0,11.64,222.0,13.78,12.97,47.59359,-54.27349
2024-02-28 15:34:00+00:00,225.0,12.08,228.0,13.32,12.97,47.59359,-54.27349
2024-02-28 15:44:00+00:00,229.0,11.3,232.0,12.27,12.97,47.59359,-54.27349
2024-02-28 15:54:00+00:00,226.0,12.8,225.0,13.87,12.97,47.59359,-54.27349
2024-02-28 16:04:00+00:00,223.0,11.8,225.0,13.31,12.97,47.59359,-54.27349
2024-02-28 16:14:01+00:00,225.0,12.29,226.0,13.52,13.37,47.59359,-54.27349
2024-02-28 16:24:01+00:00,219.0,10.52,228.0,12.59,13.37,47.59359,-54.27349
2024-02-28 16:34:01+00:00,216.0,9.67,228.0,12.29,13.37,47.59359,-54.27349
2024-02-28 16:44:01+00:00,225.0,11.01,234.0,13.29,13.37,47.59359,-54.27349
2024-02-28 16:54:01+00:00,222.0,10.19,227.0,12.34,13.37,47.59359,-54.27349
2024-02-28 17:04:01+00:00,220.0,10.41,227.0,12.59,13.37,47.59359,-54.27349
2024-02-28 17:14:01+00:00,215.0,9.76,227.0,12.64,13.6,47.59359,-54.27349
2024-02-28 17:24:01+00:00,211.0,8.63,224.0,10.85,13.6,47.59359,-54.27349
2024-02-28 17:34:01+00:00,218.0,9.43,229.0,12.18,13.6,47.59359,-54.27349
2024-02-28 17:44:01+00:00,220.0,9.79,229.0,11.72,13.6,47.59359,-54.27349
2024-02-28 17:54:01+00:00,214.0,8.93,224.0,12.18,13.6,47.59359,-54.27349
2024-02-28 18:04:01+00:00,220.0,11.21,223.0,13.44,13.6,47.59359,-54.27349
2024-02-28 18:14:00+00:00,210.0,8.98,224.0,11.15,13.76,47.59359,-54.27349
2024-02-28 18:24:00+00:00,209.0,8.99,217.0,10.48,13.76,47.59359,-54.27349
2024-02-28 18:34:00+00:00,212.0,9.94,226.0,12.06,13.76,47.59359,-54.27349
2024-02-28 18:44:00+00:00,205.0,9.1,212.0,10.23,13.76,47.59359,-54.27349
2024-02-28 18:54:00+00:00,201.0,8.72,204.0,9.56,13.76,47.59359,-54.27349
2024-02-28 19:04:00+00:00,207.0,8.08,209.0,9.24,13.76,47.59359,-54.27349
2024-02-28 19:14:00+00:00,202.0,8.7,203.0,9.85,13.6,47.59359,-54.27349
2024-02-28 19:24:00+00:00,203.0,8.12,205.0,8.79,13.6,47.59359,-54.27349
2024-02-28 19:34:00+00:00,208.0,9.2,221.0,11.93,13.6,47.59359,-54.27349
2024-02-28 19:44:00+00:00,213.0,9.46,225.0,12.74,13.6,47.59359,-54.27349
2024-02-28 19:54:00+00:00,210.0,11.3,215.0,13.11,13.6,47.59359,-54.27349
2024-02-28 20:04:00+00:00,205.0,8.58,202.0,9.92,13.6,47.59359,-54.27349
2024-02-28 20:14:00+00:00,210.0,7.73,221.0,9.57,13.6,47.59359,-54.27349
2024-02-28 20:24:00+00:00,204.0,9.43,213.0,11.25,13.6,47.59359,-54.27349
2024-02-28 20:34:00+00:00,212.0,12.68,224.0,14.85,13.6,47.59359,-54.27349
2024-02-28 20:44:00+00:00,216.0,13.89,213.0,16.01,13.6,47.59359,-54.27349
2024-02-28 20:54:00+00:00,217.0,14.1,218.0,15.92,13.6,47.59359,-54.27349
2024-02-28 21:04:00+00:00,215.0,12.48,220.0,14.06,13.6,47.59359,-54.27349
2024-02-28 21:14:00+00:00,214.0,11.8,220.0,14.76,13.13,47.59359,-54.27349
2024-02-28 21:24:00+00:00,209.0,10.85,218.0,13.61,13.13,47.59359,-54.27349
2024-02-28 21:34:00+00:00,210.0,10.01,221.0,12.27,13.13,47.59359,-54.27349
2024-02-28 21:44:00+00:00,203.0,9.93,209.0,10.96,13.13,47.59359,-54.27349
2024-02-28 21:54:00+00:00,207.0,8.98,198.0,11.62,13.13,47.59359,-54.27349
2024-02-28 22:04:00+00:00,206.0,9.69,220.0,11.43,13.13,47.59359,-54.27349
2024-02-28 22:14:00+00:00,213.0,9.71,221.0,12.41,12.41,47.59359,-54.27349
2024-02-28 22:24:00+00:00,215.0,9.22,227.0,11.77,12.41,47.59359,-54.27349
2024-02-28 22:34:00+00:00,210.0,9.23,228.0,11.76,12.41,47.59359,-54.27349
2024-02-28 22:44:00+00:00,206.0,8.82,206.0,9.78,12.41,47.59359,-54.27349
2024-02-28 22:54:00+00:00,201.0,8.96,206.0,10.02,12.41,47.59359,-54.27349
2024-02-28 23:04:00+00:00,210.0,8.95,222.0,10.74,12.41,47.59359,-54.27349
2024-02-28 23:14:00+00:00,216.0,10.05,226.0,11.63,12.25,47.59359,-54.27349
2024-02-28 23:24:00+00:00,223.0,8.57,234.0,10.79,12.25,47.59359,-54.27349
2024-02-28 23:34:00+00:00,218.0,7.32,213.0,8.32,12.25,47.59359,-54.27349
2024-02-28 23:44:00+00:00,213.0,9.67,208.0,11.04,12.25,47.59359,-54.27349
2024-02-28 23:54:00+00:00,217.0,8.65,223.0,10.2,12.25,47.59359,-54.27349
